GW3643 Weather Reports


Display with metric or nautical units.
time (UTC)temp
F
wind
direction
speed
MPH
gust
MPH
rain 1hr
in
rain 24hr
in
rain mn
in
humidity
%
barometer
mb
20260509012543 55 213 5.0 12.0 0.00 0.04 0.00 77 1009.7
20260509012045 55 176 4.0 8.0 0.00 0.04 0.00 77 1009.8
20260509011552 55 175 3.0 8.0 0.00 0.04 0.00 77 1009.8
20260509011046 55 166 3.0 8.0 0.00 0.04 0.00 77 1009.9
20260509010548 55 143 3.0 10.0 0.00 0.04 0.00 77 1009.9
20260509010055 55 120 4.0 10.0 0.00 0.04 0.00 76 1009.8
20260509005550 55 136 3.0 8.0 0.00 0.04 0.00 77 1010.0
20260509005044 55 103 3.0 8.0 0.00 0.04 0.00 76 1010.0
20260509004550 55 151 3.0 8.0 0.00 0.04 0.00 76 1010.0
20260509004042 55 0 2.0 5.0 0.00 0.04 0.00 76 1010.0
20260509003543 55 142 2.0 5.0 0.00 0.04 0.00 76 1010.1
20260509003057 54 149 1.0 7.0 0.00 0.04 0.00 76 1010.1
20260509002544 54 143 2.0 7.0 0.00 0.04 0.00 76 1010.1
20260509002045 54 151 1.0 7.0 0.00 0.04 0.00 77 1010.2
20260509001547 54 182 2.0 6.0 0.00 0.04 0.00 76 1010.2
20260509001044 54 0 2.0 8.0 0.00 0.04 0.00 77 1010.2
20260509000546 54 87 2.0 8.0 0.00 0.04 0.00 76 1010.3
20260509000051 54 104 3.0 7.0 0.00 0.04 0.00 76 1010.4
20260508235543 55 132 1.0 6.0 0.00 0.04 0.00 75 1010.3
20260508235042 55 125 2.0 7.0 0.00 0.04 0.00 75 1010.4
20260508234552 55 122 2.0 7.0 0.00 0.04 0.00 75 1010.4
20260508234042 55 155 2.0 6.0 0.00 0.04 0.00 75 1010.3
20260508233542 55 101 2.0 6.0 0.00 0.04 0.00 75 1010.3
20260508233104 55 88 0.0 6.0 0.00 0.04 0.00 74 1010.3
20260508232543 55 95 1.0 6.0 0.00 0.04 0.00 74 1010.3
20260508232045 56 80 2.0 8.0 0.00 0.04 0.00 73 1010.2
20260508231559 56 132 2.0 8.0 0.00 0.04 0.00 73 1010.3
20260508231043 56 132 2.0 8.0 0.00 0.04 0.00 73 1010.3
20260508230544 56 0 2.0 8.0 0.00 0.04 0.00 72 1010.3
20260508230106 56 0 2.0 6.0 0.00 0.04 0.00 72 1010.3
20260508225543 56 104 1.0 4.0 0.00 0.04 0.00 72 1010.4
20260508225043 56 84 1.0 4.0 0.00 0.04 0.00 72 1010.4
20260508224550 56 127 0.0 4.0 0.00 0.04 0.00 72 1010.4
20260508224042 56 0 1.0 4.0 0.00 0.04 0.00 72 1010.5
20260508223542 56 139 0.0 4.0 0.00 0.04 0.00 72 1010.7
20260508223051 56 0 0.0 4.0 0.00 0.04 0.00 72 1010.5
20260508222542 56 57 1.0 4.0 0.00 0.04 0.00 72 1010.7
20260508222044 57 0 1.0 5.0 0.00 0.04 0.00 71 1010.6
20260508221551 57 28 1.0 5.0 0.00 0.04 0.00 71 1010.7
20260508221045 57 105 1.0 5.0 0.00 0.04 0.00 70 1010.7
20260508220542 57 72 1.0 5.0 0.00 0.04 0.00 70 1010.6
20260508220050 57 128 1.0 6.0 0.00 0.04 0.00 69 1010.7
20260508215545 57 65 1.0 6.0 0.00 0.04 0.04 68 1010.7
20260508215043 57 143 1.0 5.0 0.00 0.04 0.04 67 1010.6
20260508214547 57 104 1.0 6.0 0.00 0.04 0.04 66 1010.7
20260508214043 58 114 1.0 6.0 0.00 0.04 0.04 65 1010.8
20260508213542 58 127 1.0 4.0 0.00 0.04 0.04 64 1010.7
20260508213051 58 0 1.0 5.0 0.00 0.04 0.04 64 1010.8
20260508212543 58 128 1.0 5.0 0.00 0.04 0.04 63 1010.8
20260508212043 58 104 2.0 5.0 0.00 0.04 0.04 62 1010.8
20260508211550 58 156 1.0 4.0 0.00 0.04 0.04 62 1010.8
20260508211044 58 79 1.0 7.0 0.00 0.04 0.04 62 1010.8
20260508210546 58 89 0.0 7.0 0.00 0.04 0.04 62 1010.6
20260508210050 58 147 0.0 5.0 0.00 0.04 0.04 62 1010.6
20260508205542 58 64 1.0 5.0 0.00 0.04 0.04 61 1010.5
20260508205045 58 37 1.0 5.0 0.00 0.04 0.04 61 1010.5
20260508204551 58 0 0.0 5.0 0.00 0.04 0.04 61 1010.4
20260508204042 58 68 1.0 5.0 0.00 0.04 0.04 61 1010.6
20260508203548 58 0 1.0 5.0 0.00 0.04 0.04 61 1010.4
20260508203051 59 0 1.0 5.0 0.00 0.04 0.04 61 1010.4
20260508202543 59 73 1.0 5.0 0.00 0.04 0.04 60 1010.4
20260508202045 59 130 2.0 5.0 0.00 0.04 0.04 61 1010.3
20260508201550 59 64 1.0 5.0 0.00 0.04 0.04 61 1010.3
20260508201043 59 103 1.0 5.0 0.00 0.04 0.04 61 1010.2
20260508200542 59 64 2.0 5.0 0.00 0.04 0.04 61 1010.2
20260508200055 59 71 1.0 5.0 0.00 0.04 0.04 61 1010.2
20260508195543 59 123 0.0 4.0 0.00 0.04 0.04 62 1010.2
20260508195042 59 128 0.0 4.0 0.00 0.04 0.04 62 1010.1
20260508194549 59 62 1.0 4.0 0.00 0.04 0.04 62 1010.1
20260508194045 60 0 1.0 4.0 0.00 0.04 0.04 61 1010.1
20260508193542 60 148 0.0 3.0 0.00 0.04 0.04 61 1010.0
20260508193115 60 55 0.0 5.0 0.00 0.04 0.04 61 1010.0
20260508192542 60 0 1.0 5.0 0.00 0.04 0.04 60 1010.0
20260508192046 60 355 1.0 4.0 0.00 0.04 0.04 60 1009.9
20260508191559 60 11 2.0 4.0 0.00 0.04 0.04 59 1009.8
20260508191045 60 0 1.0 3.0 0.00 0.04 0.04 59 1009.9
20260508190542 60 0 0.0 2.0 0.00 0.04 0.04 59 1009.9
20260508190054 60 0 0.0 2.0 0.00 0.04 0.04 59 1009.8
20260508185545 60 0 0.0 2.0 0.00 0.04 0.04 59 1009.7
20260508185044 61 0 0.0 2.0 0.00 0.04 0.04 58 1009.7
20260508184608 61 0 0.0 2.0 0.00 0.04 0.04 58 1009.7
20260508184044 61 0 0.0 1.0 0.00 0.04 0.04 58 1009.6
20260508183542 61 0 0.0 1.0 0.00 0.04 0.04 57 1009.6
20260508183051 61 0 0.0 2.0 0.00 0.04 0.04 57 1009.5
20260508182542 61 309 1.0 2.0 0.00 0.04 0.04 57 1009.5
20260508182042 61 309 0.0 3.0 0.00 0.04 0.04 57 1009.4
20260508181558 62 309 1.0 3.0 0.00 0.04 0.04 56 1009.5
20260508181043 62 0 0.0 3.0 0.00 0.04 0.04 56 1009.5
20260508180542 62 351 0.0 3.0 0.00 0.04 0.04 56 1009.6
20260508180056 62 0 1.0 3.0 0.00 0.04 0.04 56 1009.5
20260508175542 62 346 0.0 4.0 0.00 0.04 0.04 56 1009.5
20260508175045 62 0 1.0 4.0 0.00 0.04 0.04 55 1009.5
20260508174558 62 309 1.0 4.0 0.00 0.04 0.04 55 1009.5
20260508174042 62 0 0.0 5.0 0.00 0.04 0.04 54 1009.5
20260508173542 63 322 2.0 7.0 0.00 0.04 0.04 54 1009.7
20260508173101 62 304 3.0 7.0 0.00 0.04 0.04 54 1009.6
20260508172544 63 351 2.0 4.0 0.00 0.04 0.04 53 1009.6
20260508172043 63 351 0.0 3.0 0.00 0.04 0.04 54 1009.6
20260508171606 63 311 0.0 3.0 0.00 0.04 0.04 54 1009.5
20260508171042 62 0 1.0 4.0 0.00 0.04 0.04 55 1009.6
20260508170547 63 311 0.0 5.0 0.00 0.04 0.04 55 1009.5
20260508165542 62 3 1.0 3.0 0.00 0.04 0.04 54 1009.5
20260508165043 62 301 0.0 2.0 0.00 0.04 0.04 56 1009.6
20260508164556 61 0 0.0 3.0 0.00 0.04 0.04 54 1009.7
20260508164045 62 319 0.0 3.0 0.00 0.04 0.04 53 1009.7
20260508163542 62 0 1.0 3.0 0.00 0.04 0.04 55 1009.8
20260508163050 61 317 0.0 3.0 0.00 0.04 0.04 57 1009.8
20260508162545 61 306 0.0 5.0 0.00 0.04 0.04 56 1009.9
20260508162043 61 0 1.0 5.0 0.00 0.04 0.04 58 1009.8
20260508161548 61 308 1.0 4.0 0.00 0.04 0.04 56 1009.8
20260508161045 62 357 1.0 5.0 0.00 0.04 0.04 56 1009.8
20260508160543 61 0 1.0 5.0 0.00 0.04 0.04 59 1009.7
20260508160055 59 0 0.0 5.0 0.00 0.04 0.04 62 1009.7
20260508155547 60 357 2.0 5.0 0.00 0.06 0.04 60 1009.8
20260508155045 58 56 1.0 7.0 0.00 0.06 0.04 62 1009.8
20260508154550 59 346 2.0 7.0 0.00 0.06 0.04 63 1009.8
20260508154044 59 0 3.0 7.0 0.00 0.06 0.04 67 1009.8
20260508153545 59 360 3.0 8.0 0.00 0.06 0.04 67 1009.9
20260508153052 58 335 1.0 9.0 0.00 0.06 0.04 70 1010.0
20260508152546 57 322 5.0 11.0 0.00 0.06 0.04 70 1010.0
20260508152042 57 332 5.0 11.0 0.00 0.06 0.04 71 1010.1
20260508151556 57 351 3.0 9.0 0.00 0.06 0.04 73 1010.1
20260508151043 57 8 3.0 9.0 0.00 0.06 0.04 75 1010.2
20260508150545 57 55 5.0 9.0 0.00 0.06 0.04 73 1010.3
20260508150056 58 328 1.0 8.0 0.00 0.06 0.04 70 1010.4
20260508145548 59 290 2.0 8.0 0.00 0.14 0.04 67 1010.4
20260508145045 59 341 2.0 9.0 0.00 0.14 0.04 65 1010.4
20260508144555 59 217 2.0 10.0 0.00 0.14 0.04 66 1010.3
20260508144043 59 215 5.0 10.0 0.00 0.14 0.04 65 1010.2
20260508143545 59 226 3.0 12.0 0.00 0.14 0.04 62 1010.2
20260508143050 60 178 3.0 12.0 0.00 0.14 0.04 61 1010.1
20260508142544 61 216 1.0 9.0 0.00 0.14 0.04 59 1010.0
20260508142043 61 0 3.0 10.0 0.00 0.14 0.04 59 1010.0
20260508141553 60 222 3.0 11.0 0.00 0.14 0.04 60 1010.1
20260508141041 60 243 4.0 11.0 0.00 0.14 0.04 61 1010.2
20260508140542 60 190 2.0 7.0 0.00 0.14 0.04 62 1010.3
20260508140047 59 146 4.0 7.0 0.00 0.14 0.04 62 1010.3
20260508135544 60 158 4.0 7.0 0.00 0.29 0.04 63 1010.2
20260508135044 60 188 3.0 7.0 0.00 0.29 0.04 61 1010.3
20260508134553 59 156 2.0 7.0 0.00 0.29 0.04 63 1010.3
20260508134044 59 182 2.0 5.0 0.00 0.29 0.04 64 1010.3
20260508133544 59 165 0.0 5.0 0.00 0.29 0.04 63 1010.2
20260508133051 59 341 1.0 6.0 0.00 0.29 0.04 63 1010.2
20260508132544 58 0 1.0 6.0 0.00 0.29 0.04 65 1010.3
20260508132045 58 118 2.0 5.0 0.00 0.29 0.04 69 1010.5
20260508131600 57 28 1.0 4.0 0.00 0.29 0.04 68 1010.7
20260508131044 57 0 1.0 9.0 0.00 0.29 0.04 70 1010.6
20260508130543 56 0 3.0 9.0 0.00 0.29 0.04 71 1010.7
20260508130109 56 24 3.0 8.0 0.00 0.29 0.04 71 1010.8
20260508125545 56 118 0.0 6.0 0.00 0.29 0.04 72 1010.8
20260508125043 56 139 2.0 6.0 0.00 0.29 0.04 74 1010.8
20260508124553 56 41 3.0 6.0 0.00 0.29 0.04 73 1010.9
20260508124044 55 63 1.0 5.0 0.00 0.29 0.04 72 1011.0
20260508123547 55 351 2.0 7.0 0.00 0.29 0.04 72 1011.1
20260508123056 56 317 2.0 7.0 0.00 0.29 0.04 75 1011.0
20260508122544 56 13 2.0 7.0 0.00 0.29 0.04 73 1011.0
20260508122044 55 0 1.0 3.0 0.00 0.29 0.04 74 1011.2
20260508121602 55 0 1.0 3.0 0.00 0.29 0.04 73 1011.4
20260508121043 54 0 0.0 4.0 0.00 0.29 0.04 75 1011.4
20260508120544 54 0 2.0 4.0 0.00 0.29 0.04 75 1011.3
20260508120054 54 25 1.0 4.0 0.00 0.29 0.04 76 1011.4
20260508115542 53 41 2.0 4.0 0.00 0.29 0.04 76 1011.5
20260508115045 53 48 1.0 5.0 0.00 0.29 0.04 77 1011.5
20260508114556 53 17 2.0 5.0 0.00 0.29 0.04 76 1011.4
20260508114045 53 24 2.0 5.0 0.00 0.29 0.04 76 1011.4
20260508113545 53 1 1.0 4.0 0.00 0.29 0.04 76 1011.5
20260508113052 53 5 0.0 7.0 0.00 0.29 0.04 76 1011.4
20260508112543 53 33 1.0 7.0 0.00 0.29 0.04 76 1011.4
20260508112045 53 1 3.0 5.0 0.00 0.29 0.04 77 1011.3
20260508111548 53 5 3.0 5.0 0.01 0.29 0.04 77 1011.3
20260508111047 53 103 2.0 5.0 0.02 0.29 0.04 78 1011.4
20260508110544 53 36 2.0 4.0 0.02 0.29 0.04 79 1011.6
20260508110049 53 9 2.0 4.0 0.03 0.29 0.04 80 1011.6
20260508105548 52 41 2.0 4.0 0.03 0.29 0.04 80 1011.8
20260508105048 52 45 0.0 4.0 0.03 0.29 0.04 80 1011.7
20260508104618 52 0 1.0 5.0 0.03 0.29 0.04 80 1011.8
20260508104044 52 168 1.0 5.0 0.04 0.29 0.04 81 1011.8
20260508103544 52 22 1.0 3.0 0.04 0.29 0.04 81 1011.8
20260508103052 52 39 0.0 3.0 0.04 0.29 0.04 81 1011.8
20260508102544 52 0 0.0 3.0 0.04 0.29 0.04 82 1011.9
20260508102042 52 0 1.0 3.0 0.03 0.29 0.03 80 1011.7
20260508101553 52 0 0.0 3.0 0.03 0.28 0.03 81 1011.9
20260508101043 52 0 0.0 3.0 0.02 0.27 0.02 80 1011.8
20260508100545 52 0 1.0 3.0 0.02 0.27 0.02 79 1011.7
20260508100053 53 337 1.0 3.0 0.01 0.26 0.01 77 1011.6
20260508095545 52 287 0.0 4.0 0.00 0.25 0.00 76 1011.8
20260508095045 53 32 0.0 4.0 0.00 0.25 0.00 78 1011.4
20260508094548 53 22 1.0 4.0 0.00 0.25 0.00 75 1011.4
20260508094044 53 16 0.0 4.0 0.00 0.25 0.00 74 1011.5
20260508093548 53 0 1.0 4.0 0.00 0.25 0.00 75 1011.5
20260508093049 53 359 2.0 4.0 0.00 0.25 0.00 73 1011.3
20260508092546 53 357 0.0 2.0 0.00 0.25 0.00 76 1011.3
20260508092047 52 164 0.0 2.0 0.00 0.25 0.00 74 1011.3
20260508091553 53 0 0.0 2.0 0.00 0.25 0.00 76 1011.2
20260508091046 52 0 0.0 2.0 0.00 0.25 0.00 75 1011.2
20260508090542 52 105 0.0 5.0 0.00 0.25 0.00 76 1011.2
20260508090107 52 87 0.0 10.0 0.00 0.25 0.00 76 1011.3
20260508085542 52 155 4.0 10.0 0.00 0.25 0.00 74 1011.8
20260508085044 52 149 4.0 10.0 0.00 0.25 0.00 74 1011.8
20260508084551 52 191 3.0 7.0 0.00 0.25 0.00 74 1011.6
20260508084044 52 180 3.0 8.0 0.00 0.25 0.00 73 1011.7
20260508083544 52 165 4.0 8.0 0.00 0.25 0.00 74 1011.6
20260508083107 52 114 1.0 5.0 0.00 0.25 0.00 74 1011.3
20260508082544 52 111 1.0 6.0 0.00 0.25 0.00 74 1011.0
20260508082044 52 166 2.0 6.0 0.00 0.25 0.00 74 1011.1
20260508081555 52 55 2.0 9.0 0.00 0.25 0.00 75 1011.0
20260508081046 52 55 2.0 9.0 0.00 0.25 0.00 75 1011.0
20260508080542 51 155 2.0 7.0 0.00 0.25 0.00 75 1011.2
20260508080047 51 0 3.0 7.0 0.00 0.25 0.00 75 1011.2
20260508075544 51 147 2.0 8.0 0.00 0.25 0.00 75 1011.2
20260508075044 51 82 1.0 8.0 0.00 0.25 0.00 75 1011.1
20260508074552 51 130 2.0 7.0 0.00 0.25 0.00 75 1011.1
20260508074045 51 32 2.0 6.0 0.00 0.25 0.00 75 1011.2
20260508073546 50 112 2.0 8.0 0.00 0.25 0.00 75 1011.3
20260508073055 50 207 1.0 8.0 0.00 0.25 0.00 75 1011.3
20260508072544 50 84 2.0 8.0 0.00 0.25 0.00 75 1011.3
20260508072045 50 88 2.0 6.0 0.00 0.25 0.00 75 1011.4
20260508071601 50 76 1.0 7.0 0.00 0.25 0.00 76 1011.3
20260508071045 50 62 2.0 7.0 0.00 0.25 0.00 76 1011.2
20260508070546 50 124 1.0 6.0 0.00 0.25 0.00 76 1011.0
20260508070140 50 81 2.0 6.0 0.00 0.25 0.00 75 1011.0
20260508065547 50 95 2.0 6.0 0.00 0.25 0.00 75 1010.8
20260508065046 50 138 1.0 3.0 0.00 0.25 0.00 75 1011.1
20260508064605 50 164 0.0 3.0 0.00 0.25 0.00 75 1011.0
20260508064044 50 41 1.0 4.0 0.00 0.25 0.00 76 1010.9
20260508063544 50 88 1.0 5.0 0.00 0.25 0.00 75 1011.0
20260508063049 50 127 0.0 7.0 0.00 0.25 0.00 75 1010.9
20260508062542 50 74 2.0 7.0 0.00 0.25 0.00 76 1010.8
20260508062042 50 116 3.0 7.0 0.00 0.25 0.00 76 1010.8
20260508061555 50 83 2.0 7.0 0.00 0.25 0.00 76 1010.7
20260508061043 50 100 2.0 6.0 0.00 0.25 0.00 76 1010.7
20260508060546 50 99 1.0 5.0 0.00 0.25 0.00 77 1010.7
20260508060052 50 0 0.0 7.0 0.00 0.25 0.00 77 1010.8
20260508055545 49 92 2.0 7.0 0.00 0.25 0.00 77 1010.8
20260508055045 49 84 3.0 6.0 0.00 0.25 0.00 77 1010.7
20260508054551 49 76 1.0 8.0 0.00 0.25 0.00 77 1010.7
20260508054045 49 120 2.0 8.0 0.00 0.25 0.00 77 1010.8
20260508053545 50 14 1.0 5.0 0.00 0.25 0.00 77 1010.8
20260508053103 49 5 2.0 8.0 0.00 0.25 0.00 77 1011.0
20260508052545 49 3 3.0 8.0 0.00 0.25 0.00 77 1011.0
20260508052042 50 5 0.0 5.0 0.00 0.25 0.00 77 1011.0
20260508051552 50 0 1.0 5.0 0.00 0.25 0.00 76 1010.9
20260508051045 50 9 1.0 4.0 0.00 0.25 0.00 76 1010.9
20260508050545 50 110 1.0 6.0 0.00 0.25 0.00 76 1010.8
20260508050047 50 102 1.0 6.0 0.00 0.25 0.00 76 1010.8
20260508045542 50 41 0.0 5.0 0.00 0.25 0.00 76 1010.8
20260508045044 50 55 0.0 5.0 0.00 0.25 0.00 76 1010.9
20260508044551 50 64 2.0 5.0 0.00 0.25 0.00 76 1010.8
20260508044042 50 79 1.0 4.0 0.00 0.25 0.00 76 1010.9
20260508043542 50 155 0.0 4.0 0.00 0.25 0.00 76 1010.7
20260508043101 50 106 2.0 4.0 0.00 0.25 0.00 76 1010.7
20260508042545 50 116 1.0 4.0 0.00 0.25 0.00 76 1010.6
20260508042044 50 0 0.0 4.0 0.00 0.25 0.00 76 1010.5
20260508041550 50 76 0.0 4.0 0.00 0.25 0.00 76 1010.5
20260508041045 50 47 1.0 4.0 0.00 0.25 0.00 76 1010.5
20260508040544 50 0 0.0 4.0 0.00 0.25 0.00 76 1010.3
20260508040050 50 91 0.0 3.0 0.00 0.25 0.00 76 1010.4
20260508035543 50 86 0.0 3.0 0.00 0.25 0.00 76 1010.4
20260508035044 50 0 0.0 3.0 0.00 0.25 0.00 76 1010.3
20260508034547 50 0 0.0 3.0 0.00 0.25 0.00 77 1010.3
20260508034044 50 0 1.0 4.0 0.00 0.25 0.00 77 1010.3
20260508033543 50 0 0.0 4.0 0.00 0.25 0.00 77 1010.3
20260508033049 50 0 2.0 4.0 0.00 0.25 0.00 76 1010.2
20260508032542 50 25 1.0 4.0 0.00 0.25 0.00 76 1010.4
20260508032043 50 121 0.0 3.0 0.00 0.25 0.00 76 1010.4
20260508031554 50 24 1.0 4.0 0.00 0.25 0.00 76 1010.5
20260508031042 50 70 1.0 4.0 0.00 0.25 0.00 76 1010.5
20260508030544 50 74 0.0 3.0 0.00 0.25 0.00 77 1010.6
20260508030058 50 51 0.0 4.0 0.00 0.25 0.00 77 1010.5
20260508025545 50 0 2.0 4.0 0.00 0.25 0.00 77 1010.4
20260508025044 50 16 1.0 3.0 0.00 0.25 0.00 76 1010.4
20260508024556 50 112 0.0 3.0 0.00 0.25 0.00 77 1010.3
20260508024045 50 0 0.0 3.0 0.00 0.25 0.00 77 1010.4
20260508023544 50 0 0.0 3.0 0.00 0.25 0.00 77 1010.3
20260508023050 50 0 0.0 5.0 0.00 0.25 0.00 77 1010.3
20260508022545 50 77 0.0 5.0 0.00 0.25 0.00 77 1010.3
20260508022045 50 48 1.0 4.0 0.00 0.25 0.00 77 1010.2
20260508021551 50 109 1.0 4.0 0.00 0.25 0.00 77 1010.2
20260508021042 50 0 0.0 2.0 0.00 0.25 0.00 77 1010.3
20260508020542 50 0 0.0 3.0 0.00 0.25 0.00 77 1010.4
20260508020056 50 0 0.0 3.0 0.00 0.25 0.00 77 1010.6
20260508015542 50 0 0.0 3.0 0.00 0.25 0.00 77 1010.6
20260508015044 50 52 1.0 7.0 0.00 0.25 0.00 77 1010.6
20260508014550 50 0 0.0 7.0 0.00 0.25 0.00 77 1010.7
20260508014043 50 120 1.0 7.0 0.00 0.25 0.00 77 1010.8
20260508013544 50 76 1.0 4.0 0.00 0.25 0.00 77 1011.0
20260508013050 50 6 1.0 4.0 0.00 0.25 0.00 77 1011.2